Location: Dana
(41.8364°N, 106.7042°W)
Time: 01:48:56
(UTC+00:00)

Transit 4A - Pass Details

Date: 19 May 2026
Orbit: 860 x 980 km, 66.8° (Epoch: 6 June)

Event Time Altitude Azimuth Distance (km) Brightness Sun altitude
Rises 16:11:26 0° 267° (W) 3,589 10.6 47.7°
Reaches altitude 10° 16:15:04 10° 288° (WNW) 2,672 10.0 48.3°
Maximum altitude 16:18:48 16° 325° (NW) 2,282 9.8 49.0°
Drops below altitude 10° 16:22:35 10° 2° (N) 2,717 10.3 49.6°
Sets 16:26:21 0° 23° (NNE) 3,681 11.0 50.3°
